AOMORI_AIRPORT current weather conditions

sailwx.info

Wind from 220 at 6 knots

Air temperature -3.0° C
Visibility: greater than 3.2 NM
Dewpoint -8.0° C
Present weather: Light snow showers.

Last reported at 2020-Jan-25 12:00 UTC.
Time now 2020-Jan-25 13:30 UTC

Location: N 40°43' E 140°41'.
View on Google Maps.

See reports from other nearby stations

  
Tides and Currents Weather Stations Pressure Air Temp Water Temp Dewpoint Dewpoint Depression Visibility Wind Speed Wind Dir Waves Ship Positions
date/time (UTC)wind fromknots sea level pressurealtimeterstation pressurevisibilityair tempwater tempwave heightnotes
2020-Jan-25 12:00 220 6 3.2-3.0 Light snow showers.
2020-Jan-25 11:00 210 6 4.3-4.0 Light snow showers.
2020-Jan-25 10:04 200 6 2.7-4.0 Light snow showers.
2020-Jan-25 10:00 200 6 2.2-4.0 Light snow showers.
2020-Jan-25 09:50 210 6 2.2-4.0 Light snow showers.
2020-Jan-25 09:00 230 11 4.3-3.0 Light snow showers.
2020-Jan-25 08:31 230 12 3.2-4.0 Light snow showers.
2020-Jan-25 08:00 240 11 1.6-4.0 Light snow showers.
2020-Jan-25 07:00 240 11 2.7-3.0 Light snow showers.
2020-Jan-25 06:48 240 11 2.7-3.0 Light snow showers.
2020-Jan-25 06:41 240 12 1.6-3.0 Light snow showers.
2020-Jan-25 06:37 250 12 2.7-3.0 Light snow showers.
2020-Jan-25 06:31 250 9 2.2-3.0 Light snow showers.
2020-Jan-25 06:27 250 9 2.7-3.0 Light snow showers.
2020-Jan-25 06:21 240 9 1.9-3.0 Light snow showers.
2020-Jan-25 06:00 250 11 3.2-3.0 Light snow showers.
2020-Jan-25 05:11 250 13 3.2-3.0 Light snow showers.
2020-Jan-25 05:02 260 14 gusting 26 2.4-3.0 Light snow showers.
2020-Jan-25 05:00 260 15 gusting 26 4.3-3.0 Light snow showers.
2020-Jan-25 04:00 260 13 5.4-3.0 Light snow showers.
2020-Jan-25 03:00 260 12 3.2-3.0 Light snow showers.
2020-Jan-25 02:00 250 8 4.3-3.0 Light snow showers.
2020-Jan-25 01:00 230 12 4.3-4.0 Light snow showers.
2020-Jan-25 00:45 220 9 4.3-4.0 Light snow showers.
2020-Jan-25 00:31 240 9 2.2-4.0 Light snow showers.
2020-Jan-25 00:00 260 8 5.4-4.0 Light snow showers.
2020-Jan-24 23:20 260 9 3.2-4.0 Light snow showers.
2020-Jan-24 23:09 240 7 1.1-4.0 Light snow showers.
2020-Jan-24 23:07 230 6 1.9-4.0 Light snow showers.
2020-Jan-24 23:00 230 6 5.4-4.0 Light snow showers.
2020-Jan-24 22:00 250 6 3.2-4.0 Light snow showers.
2020-Jan-24 21:40 260 5 4.9-4.0 Light snow showers.
2020-Jan-24 12:26 260 11 3.2-4.0 Light snow showers.
2020-Jan-24 12:16 260 11 gusting 20 2.2-4.0 Light snow showers.
2020-Jan-24 12:00 280 8 2.2-4.0 Light snow showers.
2020-Jan-24 11:00 270 9 3.8-4.0 Light snow showers.
2020-Jan-24 10:00 260 12 4.3-4.0 Light snow showers.
2020-Jan-24 09:00 260 13 gusting 22 4.3-3.0 Light snow showers.
2020-Jan-24 08:42 260 9 3.2-4.0 Light snow showers.
2020-Jan-24 08:25 260 9 2.4-3.0 Light snow showers.
2020-Jan-24 08:00 270 13 4.3-3.0 Light snow showers.
2020-Jan-24 07:00 270 13 4.3-3.0 Light snow showers.
2020-Jan-24 06:00 270 12 5.4-2.0 Light snow showers.
2020-Jan-24 05:00 270 5 5.4-2.0
2020-Jan-24 04:00 280 8 4.9-2.0 Light snow showers.
2020-Jan-24 03:40 280 12 gusting 21 3.2-1.0 Light snow showers.
2020-Jan-24 03:30 270 13 0.6-1.0 Light snow showers.
2020-Jan-24 03:03 260 9 0.3-1.0 Snow showers.
2020-Jan-24 03:00 260 9 0.3-1.0 Snow showers.
2020-Jan-24 02:22 270 9 0.5-0.0 Snow showers.
2020-Jan-24 02:00 270 11 0.6-0.0 Light snow showers.
2020-Jan-24 01:40 270 8 0.5-0.0 Light snow showers.
2020-Jan-24 01:30 250 12 0.4-0.0 Snow showers.
2020-Jan-24 01:00 250 14 0.2-0.0 Snow showers.
2020-Jan-24 00:19 240 12 0.2-0.0 Snow showers.
2020-Jan-24 00:14 250 11 0.3 1.0 Snow showers.
2020-Jan-24 00:11 260 11 0.5 1.0 Snow showers.
2020-Jan-24 00:06 270 11 1.1 1.0 Light snow showers.
2020-Jan-24 00:00 270 9 2.2 2.0 Light snow showers.
2020-Jan-23 23:00 210 13 5.4 3.0
2020-Jan-23 22:00 220 9 5.4 2.0
2020-Jan-23 21:40 220 8 5.4 2.0